This demonstration page uses our WeatherBlox Daily Observations layout. Learn more.

Left ArrowRight Arrow

Hourly Observations for May 18, 2018

Temp ( °F °C ) Dew Point ( °F °C ) Humidity (%) Winds ( mph kmh ) Pressure ( in mb ) Visibility ( mi km ) Precip ( " mm )
12:53 am 00:53 Clear 70 21.1 65 18.3 84 84 NNE 7 11 29.97 1015 10 16 0.00 0.00
1:53 am 01:53 Clear 69 20.6 59 15 70 70 NE 10 17 29.97 1015 10 16 0.00 0.00
2:53 am 02:53 Mostly Clear 66 18.9 58 14.4 75 75 NE 6 9 29.95 1014 10 16 0.00 0.00
3:53 am 03:53 Mostly Cloudy 66 18.9 58 14.4 75 75 NNE 7 11 29.93 1014 10 16 0.00 0.00
4:53 am 04:53 Partly Cloudy 65 18.3 58 14.4 78 78 NNE 7 11 29.93 1014 10 16 0.00 0.00
5:53 am 05:53 Cloudy 66 18.9 58 14.4 75 75 ENE 7 11 29.94 1014 10 16 0.00 0.00
6:53 am 06:53 Cloudy 67 19.4 59 15 76 76 NE 8 13 29.95 1014 10 16 0.00 0.00
7:04 am 07:04 Cloudy 67 19.4 60 15.6 79 79 NE 7 11 29.97 1015 10 16 0.00 0.00
7:14 am 07:14 Cloudy 67 19.4 60 15.6 79 79 NE 7 11 29.97 1015 10 16 0.00 0.00
7:53 am 07:53 Cloudy 67 19.4 60 15.6 79 79 ENE 8 13 29.96 1015 10 16 0.00 0.00
8:13 am 08:13 Cloudy 67 19.4 61 16.1 81 81 ENE 8 13 29.97 1015 10 16 0.00 0.00
8:53 am 08:53 Cloudy 68 20 62 16.7 81 81 ENE 7 11 29.97 1015 10 16 0.00 0.00
9:53 am 09:53 Cloudy 70 21.1 63 17.2 79 79 E 14 22 29.97 1015 10 16 0.00 0.00
10:53 am 10:53 Cloudy 71 21.7 64 17.8 79 79 E 10 17 29.97 1015 10 16 0.00 0.00
11:53 am 11:53 Cloudy 71 21.7 64 17.8 79 79 E 15 24 29.96 1015 10 16 0.00 0.00
12:53 pm 12:53 Cloudy 72 22.2 65 18.3 79 79 E 12 19 29.96 1015 10 16 0.00 0.00
1:53 pm 13:53 Cloudy 72 22.2 65 18.3 79 79 E 12 19 29.96 1014 10 16 0.00 0.03
2:53 pm 14:53 Cloudy 73 22.8 66 18.9 79 79 E 12 19 29.94 1014 10 16 0.00 0.00
3:53 pm 15:53 Cloudy 76 24.4 67 19.4 74 74 E 9 15 29.91 1013 10 16 0.00 0.00
4:51 pm 16:51 Cloudy 75 24 66 19 74 74 E 12 19 29.91 1013 10 16 0.00 0.00
4:53 pm 16:53 Cloudy 75 23.9 66 18.9 74 74 E 12 19 29.91 1013 10 16 0.00 0.00
5:53 pm 17:53 Cloudy with Light Rain 75 23.9 66 18.9 74 74 E 15 24 29.90 1013 10 16 0.00 0.03
6:53 pm 18:53 Mostly Cloudy with Light Rain 72 22.2 67 19.4 84 84 E 8 13 29.90 1013 9 14 0.02 0.51
7:25 pm 19:25 Cloudy with Nearby Thunderstorms 71 21.7 67 19.4 87 87 E 7 11 29.91 1013 4 6 0.07 1.78
7:40 pm 19:40 Cloudy with Rain 70 21.1 67 19.4 90 90 ENE 7 11 29.91 1013 5 8 0.11 2.79
7:53 pm 19:53 Cloudy with Rain 70 21.1 67 19.4 90 90 ENE 8 13 29.89 1012 5 8 0.13 3.30
8:30 pm 20:30 Cloudy with Light Rain 69 20.6 67 19.4 93 93 Calm 29.91 1013 10 16 0.03 0.76
8:51 pm 20:51 Cloudy with Light Rain 70 21 66 19 88 88 E 7 11 29.91 1013 8 13 0.05 1.27
8:53 pm 20:53 Cloudy with Light Rain 70 21.1 67 19.4 90 90 E 6 9 29.90 1013 9 14 0.05 1.27
9:53 pm 21:53 Cloudy with Light Rain 69 20.6 67 19.4 93 93 E 5 7 29.90 1013 8 13 0.02 0.51
10:08 pm 22:08 Cloudy with Light Rain 70 21.1 67 19.4 90 90 E 6 9 29.91 1013 9 14 0.01 0.25
10:31 pm 22:31 Cloudy with Nearby Thunderstorms 69 20.6 68 20 96 96 E 3 6 29.91 1013 10 16 0.02 0.51
10:43 pm 22:43 Cloudy with Nearby Thunderstorms 69 20.6 68 20 96 96 VRB 3 6 29.91 1013 2 3 0.08 2.03
10:53 pm 22:53 Cloudy with Light Rain 69 20.6 68 20 96 96 VRB 5 7 29.90 1013 5 8 0.09 2.29
11:15 pm 23:15 Cloudy with Nearby Thunderstorms 70 21.1 68 20 93 93 ESE 5 7 29.91 1013 10 16 0.00 0.03
11:24 pm 23:24 Cloudy 70 21.1 67 19.4 90 90 ESE 6 9 29.91 1013 10 16 0.00 0.03
11:53 pm 23:53 Mostly Cloudy with Light Rain 70 21.1 67 19.4 90 90 E 10 17 29.88 1012 8 13 0.02 0.51

Powered by AerisWeather